sat.trackr.live / text

‹ back to catalog

FORMOSAT 7-6

NORAD 44353 · 2019-036Q

PAYLOAD ACTIVE UNKNOWN

§ Identity

Operator
Country
ROC
Launch date
2019-06-25
Launch site
AFETR
Launch vehicle
Mass (kg)
RCS (m²)

External: N2YO · Heavens-Above · Gunter

§ Orbital elements

Epoch: 2026-09-12T21:30:25.134336Z

Period
96.20 min
Inclination
23.9973°
Eccentricity
0.0001299
Mean motion
14.96817895 rev/d
Perigee alt
575.8 km
Apogee alt
577.6 km
Semi-major
6,954.9 km
B*
1.4808e-4
RAAN
98.1659°
Arg perigee
51.5505°
Mean anomaly
308.5112°
Rev number
39,497

§ Raw data

FORMOSAT 7-61 44353U 19036Q   26255.89612424  .00002041  00000+0  14808-3 0  99942 44353  23.9973  98.1659 0001299  51.5505 308.5112 14.96817895394974

JSON: /api/v1/satellites/44353 · /tle

For live sub-satellite position, see the globe view (requires WebGL).

§ Visibility from observer

Set your observer location to see the next 7 days of passes ≥ 10°. The values pass through the URL so the page stays shareable.

No JS? Fill the form by hand. The geolocation button needs JavaScript.

§ Radio — SatNOGS DB

ModeDescriptionDownlinkUplink
CW Downlink 400.900 MHz

1 transmitter · refreshed weekly from db.satnogs.org